Погода в Владимире

Хотите узнать прогноз погоды в Владимире? Тогда Вам сюда: Погода в Владимире

Поиск расширенной информации на нашем сайте:

Полезная информация:

Новости сайта



02.01.2020
Опубликован Долгосрочный прогноз погоды по городам России и ближнего зарубежья на январь 2020 года.
Карты: Прогноз на январь и февраль 2020 года, Сравнение прогнозируемой аномалии приземной температуры воздуха на январь 2020 года по разным моделям.




Погода в Владимире - сегодня

Время (UTC), дата Ветер
(°,м/с) 
Видим.   Явления Облачность Т
(°С)
Тd
(°С)
f(%) Тe
(°С)
Pmin
(гПа)
dP
(гПа)
Po
(мм)
O2
(г/м3)
Тmin Tmax R s Состояние
почвы
00 19.01.20 240 (ЮЗ) 4{10}  4000 м  дымка  10/8 210 м верхняя 
[St|Ci fib]
-2 -3.5 89 -5  1022.8  0.4  751  305           
03 19.01.20 240 (ЮЗ) 4000 м  дымка  10/10 240 м 
[St]
-2 -3.4 90 -5  1023.3  0.5  751  305  -2      мокрый или
старый снег
50-90% 
06 19.01.20 240 (ЮЗ) 4000 м  дымка  10/10 210 м 
[St]
-1.5 -2.8 91 -3  1024.3  752  305  -2.1         
09 19.01.20 240 (ЮЗ) 10 км    10/10 240 м 
[Sc]
-0.9 -2.5 89 -3  1025  0.7  752  304           
12 19.01.20 250 (З) 10 км    10/10 240 м 
[Sc]
-0.3 -2.2 87 -2  1025.5  0.5  753  304           
15 19.01.20 240 (ЮЗ) 10 км    10/10 300 м 
[Sc]
-0.3 -2 88 -3  1026  0.5  753  304    -0.1       
18 19.01.20 250 (З) 4000 м    10/10 270 м 
[Sc]
-0.2 -1.8 89 -2  1026.2  0.2  753  304           
21 19.01.20 260 (З) 10 км  слаб. ливневой снег  10/10 330 м кучево-дожд. 
[Cb cap]
-0.2 -2.1 87 -3  1025.5  -0.7  753  304           
00 20.01.20 230 (ЮЗ) 10 км  {ливн. осадки}  10/10 800 м 
[Sc]
-0.1 -2.2 86 -3  1024.4  -1  752  303           
03 20.01.20 250 (З) 10 км  слаб. ливневой снег  10/8 960 м кучево-дожд., средняя 
[Cb cap|Ac und]
+0.7 -1.7 84 -2  1023.7  -0.7  752  302  -0.5    0.0  мокрый или
старый снег
10-40% 
06 20.01.20 250 (З) 10 км  слаб. ливневой снег  10/8 420 м кучево-дожд., средняя 
[Cb cap|Ac und]
+0.8 -1.1 87 -2  1022.7  -0.9  751  302           
09 20.01.20 270 (З) 10 км  {ливн. осадки}  9/9 400 м 
[Sc]
+1.7 -0.6 85 1022.2  -0.4  751  301           
12 20.01.20 270 (З) 10 км  слаб. ливневой дождь  10/10 400 м кучево-дожд. 
[Cb cap]
+1.9 -0.6 83 1021.4  -0.8  750  300           
15 20.01.20 270 (З) 10 км  {ливн. осадки}  9/9 570 м 
[Sc]
+1.4 -0.8 85 -1  1021  -0.4  750  301    +2.3  0.0     
18 20.01.20 250 (З) 10 км  {ливн. осадки}  10/10 630 м 
[Sc]
+1 -1.1 86 -1  1019.7  -1.2  749  301           
21 20.01.20 250 (З) 4000 м  дымка  10/10 420 м 
[Sc]
+0.6 -0.7 91 -2  1017.9  -1.8  747  301           
00 21.01.20 240 (ЮЗ) 4000 м  дымка  10/10 450 м 
[Sc]
+0.6 -0.5 92 -2  1015.1  -2.7  745  300           
03 21.01.20 240 (ЮЗ) 4000 м  слаб. ливневой снег  10/10 450 м кучево-дожд. 
[Cb cap]
+0.4 -1.7 86 -3  1011.8  -3.3  743  299  +0.4    0.0  мокрый или
старый снег
50-90% 
06 21.01.20 240 (ЮЗ) 1000 м  слаб. снег{ливн. осадки}  10/10 120 м 
[Frnb|Ns]
-0.2 -1 94 -4  1007.7  -4  740  298  -0.3         
09 21.01.20 240 (ЮЗ) 6{10}  1000 м  слаб. снег  10/10 120 м 
[Frnb|Ns]
+0.2 -0.5 95 -3  1004.8  -2.8  738  297           
12 21.01.20 250 (З) 2000 м  слаб. снег  10/9 120 м средняя 
[Frnb|As op]
+1.2 +0.4 94 -2  1001.9  -2.8  736  295           
15 21.01.20 250 (З) 5{10}  4000 м  слаб. дождь{снег}  10/10 180 м 
[Frnb|Ns]
+2 +1.2 94 -1  998.9  -2.9  733  293    +2     
18 21.01.20 260 (З) 4000 м  слаб. дождь{снег}  10/10 180 м 
[Frnb|Ns]
+1.6 +0.7 94 -1  996.3  -2.5  731  293           
21 21.01.20 290 (З) 4000 м  слаб. дождь  10/10 180 м 
[Frnb|Ns]
+2.4 +1.2 92 995.2  -0.9  731  292           
00 22.01.20 300 (СЗ) 5{13}  4000 м  слаб. ливневой снег{дождь}  10/10 240 м кучево-дожд. 
[Cb cap]
+0.6 -1.7 85 -2  996.5  1.1  732  294           
Время (UTC), дата Ветер
(°,м/с) 
Видим.   Явления Облачность Т
(°С)
Тd
(°С)
f(%) Тe
(°С)
Pmin
(гПа)
dP
(гПа)
Po
(мм)
O2
(г/м3)
Тmin Tmax R s Состояние
почвы

Для получения пояснительной информации подведите курсор к названию столбца.

ПОГОДА в Владимире - архив

Всё, что Вы хотите узнать о погоде в Владимире - удобно и подробно!

Выберите нужную дату (начиная с 1 января 2019* года) и нажмите кнопку "Найти".
Будут отображены архивные сводки погоды по пункту Владимир, начиная с указанной даты.


Отображать данные в формате CSV (для использования в таблицах Excel)


Внимание! Наш архив погоды предназначен исключительно для личного некоммерческого использования в познавательных целях. Если Вам необходимы официальные справки о состоянии погоды (для производственных, юридических, коммерческих и т.п. целей), обращайтесь в органы Росгидромета.

*Примечание: данная дата относится к архиву по метеостанциям СССР (Россия, СНГ, Балтия).
Архив по метеостанциям Зарубежной Европы и Азии (кроме Китая) хранится 10 дней, по другим регионам земного шара (Китай, Африка, Америка, Австралия, Океания) - 1 день.

Владимир - район местоположения метеостанции


Название, широта, долгота, высота метеостанции:
Владимир 56.1°ш. 40.3°д. 172 м над ур. моря [Российская Федерация]

Дополнительная информация

В oтличие oт бoльшинства пoгoдных сайтoв мы публикуем пoдрoбную метеoинфoрмацию в детальнoм прoфессиoнальнoм фoрмате.

Характеристики температуры и влажнoсти вoздуха измеряются на высoте 2 м в тени вдали oт зданий и деревьев.
Скoрoсть ветра измеряется на высoте 10 м (на урoвне рoста челoвека скoрoсть ветра ниже в 1.5-2 раза). Если метеoстанция нахoдится в гoрoде или в лесу, тo скoрoсть ветра занижена на 2-4 м/с пo сравнению с oткрытым местoм. Скoрoсть ветра над акватoриями крупных рек и oзёр, а также на вершинах хoлмoв на 2-5 м/с выше, чем в oбычных услoвиях.
Атмoсфернoе давление в разных тoчках местнoсти мoжет значительнo oтличаться oт давления на метеoстанции, в зависимoсти oт услoвий рельефа (при пoдъёме на 10 м давление пoнижается примернo на 1 мм рт.ст.).